Dewpoint
54 56 59 61 63 62 63 65 67 67 68 69 70 70 70 70 71 72 73 74 75 76 76 76 75 74 74 73 75 75 75 76 76 75 75 74 74 74 74 74 74 75 73 73 74 74 76 76 75 76 77 78 77 77 77 77 75 74 75 76 75 75 75
50 52 56 58 60 62 64 66 67 67 68 68 69 71 70 71 71 72 73 74 75 75 76 75 75 75 74 74 74 75 75 75 76 76 75 75 75 74 74 75 75 75 75 74 74 76 76 76 76 76 77 78 77 78 77 76 76 75 74 75 75 75 75
50 50 54 58 59 61 65 65 67 67 68 67 68 69 70 71 72 73 72 73 74 75 76 75 76 75 74 74 74 75 75 75 75 75 75 74 74 73 74 75 75 74 74 75 75 75 76 76 77 77 77 77 77 77 77 77 76 75 75 75 75 74 75
51 51 53 57 61 63 64 65 66 66 66 67 67 68 70 72 72 72 72 73 74 75 75 75 75 74 74 75 75 75 76 76 76 74 75 74 74 75 74 75 75 75 74 74 74 74 75 76 76 77 78 77 77 77 77 76 76 75 75 75 74 75 75
50 52 52 56 58 61 63 64 65 67 65 65 67 69 70 70 70 71 72 72 72 74 74 74 73 74 74 74 74 75 75 75 75 74 75 75 75 75 74 73 74 74 74 74 75 75 76 76 76 77 77 77 77 77 77 76 75 76 75 75 74 74 74
45 50 52 55 57 59 61 62 63 64 64 64 66 68 68 68 68 68 69 71 72 73 74 74 75 75 75 74 75 74 75 76 76 77 76 75 75 74 74 74 73 74 73 74 74 75 75 75 75 75 75 76 75 75 75 76 75 75 76 75 75 74 73
43 49 53 55 57 58 61 62 61 62 64 63 64 66 66 66 67 67 68 69 70 72 72 72 73 74 75 74 74 75 76 76 76 76 75 75 75 75 75 75 75 73 74 75 74 75 75 75 76 75 76 75 76 75 76 76 76 76 76 75 75 75 75
44 49 55 56 55 56 58 61 61 61 63 64 63 63 64 65 65 66 67 67 68 68 69 70 71 74 74 75 74 74 75 75 75 75 75 75 75 75 74 75 74 75 75 74 75 75 74 76 75 75 75 75 76 76 75 76 77 75 75 75 75 75 75
46 54 55 53 54 53 56 60 62 61 63 64 64 64 64 64 64 65 66 66 67 67 68 68 70 72 74 74 74 75 75 75 75 75 75 74 74 73 72 73 75 75 75 74 73 75 75 75 75 76 76 76 76 77 76 77 77 76 75 75 75 75 74
51 57 59 55 55 52 55 57 61 64 64 65 65 66 64 64 65 65 65 64 65 66 66 67 68 70 73 74 74 74 74 75 74 74 73 73 73 72 72 72 73 75 74 74 73 73 76 75 75 76 77 76 76 77 77 76 76 76 76 75 75 76 76
53 58 59 55 54 54 55 55 60 65 65 68 67 64 65 65 65 64 65 64 64 65 66 67 68 69 71 72 72 72 74 74 74 73 73 72 72 72 71 71 72 73 74 74 73 73 75 76 76 76 77 76 76 77 77 76 77 76 75 75 76 76 75
55 57 60 60 59 58 56 60 62 66 67 68 66 64 67 67 65 64 64 65 64 64 66 67 67 68 70 71 71 73 74 74 73 72 73 72 71 71 71 71 71 72 73 73 73 73 73 75 75 75 76 77 77 77 77 77 77 77 76 75 75 76 75
51 59 64 60 61 60 62 63 63 66 68 65 63 65 65 65 65 64 66 66 64 64 66 68 68 70 69 70 70 73 74 74 73 73 72 73 72 71 71 70 70 70 71 73 73 72 72 72 75 75 76 77 77 76 77 77 77 76 76 76 76 76 75
61 53 58 61 62 63 64 65 65 66 68 66 64 65 64 64 64 65 66 65 65 64 64 65 68 69 69 70 71 73 73 74 74 73 73 73 74 73 72 71 72 72 73 73 73 72 72 71 73 74 75 76 76 77 77 77 77 77 77 76 76 76 75
32 36 57 58 63 65 66 65 68 67 66 66 63 63 64 63 64 66 67 66 66 63 64 67 68 69 69 71 72 73 74 75 75 74 74 74 74 74 73 73 73 73 73 74 73 72 72 72 72 74 75 75 76 76 76 76 76 76 77 76 76 76 75
33 29 30 51 61 62 65 65 67 69 68 68 65 65 62 64 66 64 65 66 65 66 65 67 69 70 70 71 73 74 74 75 75 75 75 75 75 75 75 74 74 74 74 74 73 74 74 74 73 72 73 75 75 76 76 76 76 73 67 69 76 76 75
32 29 28 34 63 62 64 65 65 67 69 69 68 66 65 65 66 65 62 64 65 67 65 65 70 71 71 72 74 74 75 76 76 76 75 75 75 76 75 75 74 75 75 75 75 75 75 74 73 72 72 73 74 75 75 75 75 67 65 66 67 74 75
31 35 33 33 38 57 66 65 66 66 67 66 66 67 66 67 65 64 63 64 66 64 64 65 67 70 73 73 74 74 75 76 76 76 75 75 76 76 76 75 75 75 75 75 75 75 75 74 74 74 73 73 73 73 74 75 69 64 64 65 65 68 75
28 29 31 40 41 62 59 55 59 67 64 63 64 65 65 66 63 66 66 67 68 67 66 67 68 72 73 73 74 75 75 76 76 76 76 76 76 76 76 76 75 75 75 75 75 76 76 75 75 74 74 73 74 73 73 74 66 63 63 63 64 65 69
28 28 29 29 38 54 58 61 61 60 63 66 64 60 66 67 64 65 67 67 68 68 70 69 70 72 73 73 74 75 75 76 76 76 76 76 76 76 76 76 76 76 75 75 76 76 75 75 75 75 75 75 74 75 74 74 65 62 61 62 62 63 66
39 42 45 48 56 55 61 67 69 68 67 62 60 63 64 65 64 64 66 67 67 69 70 70 70 72 73 73 74 74 75 75 75 75 75 76 76 76 76 76 76 76 75 74 74 75 75 75 75 75 75 75 74 74 73 72 63 60 60 60 60 62 64
34 33 35 46 61 70 73 69 69 68 69 67 63 61 62 64 64 61 66 68 69 70 70 71 72 72 73 73 73 74 74 74 74 74 75 75 75 75 75 75 75 76 75 75 74 74 74 75 75 75 75 75 74 73 73 73 62 59 59 59 59 61 69
35 54 63 67 66 66 72 73 72 72 73 71 66 62 61 62 63 63 65 68 68 71 71 71 72 72 73 73 73 73 73 73 74 74 74 75 75 75 75 75 75 76 76 75 74 73 74 74 74 75 73 73 73 73 73 72 66 58 58 58 58 61 71
59 64 63 65 70 69 72 72 72 72 71 69 68 66 65 64 65 66 67 69 69 70 70 69 70 71 73 72 72 73 74 74 74 74 75 75 75 74 74 74 75 75 75 74 74 72 73 73 73 73 73 73 73 71 72 72 66 56 56 57 57 63 72
59 62 67 69 69 68 70 73 73 70 70 69 67 67 67 67 67 65 67 69 69 69 68 68 69 70 71 72 72 73 73 73 74 74 74 75 74 74 74 74 75 75 75 74 74 73 74 73 73 72 73 72 71 67 70 72 66 56 56 56 56 63 73
68 68 68 68 69 70 72 73 73 72 71 69 73 72 70 68 66 67 69 70 67 67 66 68 69 71 71 71 71 72 73 73 75 75 74 74 75 75 75 75 74 74 74 74 74 73 73 72 72 73 73 72 72 71 71 72 74 64 55 55 55 58 72
68 68 68 67 68 70 71 71 72 72 72 73 73 70 70 68 68 68 69 70 69 68 67 69 70 72 72 73 71 71 72 72 73 74 73 74 75 75 74 73 73 74 74 73 73 73 73 73 73 72 73 72 72 73 72 72 72 70 54 55 54 57 63
67 67 67 69 69 70 71 70 72 73 72 73 71 69 70 70 68 69 71 71 69 69 68 70 72 73 73 74 73 71 72 72 74 74 73 74 74 75 75 75 74 74 74 73 74 75 75 75 74 73 72 73 73 74 73 70 66 75 56 55 54 56 57
68 67 67 68 69 69 69 70 71 71 71 69 71 70 69 69 71 72 72 71 71 71 72 72 73 74 74 74 73 73 73 73 74 74 73 73 74 75 75 75 75 75 75 75 75 75 74 74 74 73 72 72 73 72 73 75 74 64 64 54 54 54 56
66 67 66 65 66 68 68 70 70 69 70 70 73 74 73 72 72 73 74 74 75 76 74 74 74 74 74 74 73 73 73 73 73 74 74 74 75 75 75 75 75 75 75 75 74 73 73 72 72 72 71 71 71 72 73 75 73 65 60 61 53 54 54
66 66 66 66 65 67 67 68 69 69 70 70 72 73 74 74 74 74 73 73 74 75 75 75 73 73 73 73 73 73 73 73 74 74 75 75 75 75 74 75 76 74 75 74 74 73 72 72 71 72 72 72 71 71 72 72 73 74 67 58 55 54 54
66 66 66 67 67 68 68 68 69 69 70 70 70 71 71 72 72 72 72 73 73 74 75 75 75 74 73 73 73 73 73 72 72 74 75 74 74 75 75 75 74 73 73 73 72 72 72 72 71 71 72 72 72 72 72 73 73 74 73 61 58 56 55
66 67 67 67 68 68 69 68 67 68 69 69 69 69 69 70 70 71 71 72 72 73 74 75 74 74 75 74 73 74 74 73 71 71 72 74 72 72 73 73 72 72 72 72 72 71 71 72 72 72 71 71 71 72 73 74 72 73 73 70 66 63 61
66 66 67 67 67 67 68 68 68 68 68 68 68 68 69 69 69 70 70 70 71 72 73 74 74 74 74 73 73 73 73 72 72 72 71 70 71 70 70 71 71 71 72 72 72 72 71 72 71 71 71 70 71 71 72 72 72 72 72 71 69 67 66
66 66 67 67 67 67 67 67 67 67 67 67 67 68 68 68 68 69 69 69 70 71 71 72 73 73 74 73 73 73 74 75 74 73 71 71 72 71 73 74 73 74 75 75 75 73 72 73 73 74 74 73 72 72 70 71 71 72 64 73 62 66 67
65 66 66 66 67 67 67 67 67 67 67 67 67 67 67 67 67 68 68 69 70 70 70 70 70 70 71 71 71 72 72 72 72 73 73 73 72 72 72 69 61 67 70 71 65 59 54 58 69 70 68 69 70 72 72 71 72 62 57 57 55 56 58
65 66 66 66 66 67 67 67 67 67 67 67 67 67 67 67 67 67 68 68 68 69 68 69 68 68 68 67 68 69 69 70 70 70 70 70 70 70 69 69 73 57 56 60 60 56 51 49 50 50 52 64 67 66 60 59 57 55 56 54 51 53 54
65 65 66 66 66 66 66 66 66 66 66 67 67 67 68 67 67 67 67 67 68 68 68 68 67 67 66 66 67 67 68 68 69 68 67 67 67 67 66 63 65 68 60 57 58 55 50 49 48 47 47 48 53 57 64 58 53 53 54 55 52 51 52